Weather reports worldwide

Advertisment
Aberdeen/Dyce, United Kingdom (3091): temperature & dewpoint: 05.12.2019 08:00:00 - 11.12.2019 08:00:00 (GMT)Aberdeen/Dyce, United Kingdom (3091): temperature -20cm & temperature -100cm: 05.12.2019 08:00:00 - 11.12.2019 08:00:00 (GMT)Aberdeen/Dyce, United Kingdom (3091): wind speed & gusts: 05.12.2019 08:00:00 - 11.12.2019 08:00:00 (GMT)Aberdeen/Dyce, United Kingdom (3091): wind direction: 05.12.2019 08:00:00 - 11.12.2019 08:00:00 (GMT)Aberdeen/Dyce, United Kingdom (3091): reduced air pressure: 05.12.2019 08:00:00 - 11.12.2019 08:00:00 (GMT)Aberdeen/Dyce, United Kingdom (3091): visibility: 05.12.2019 08:00:00 - 11.12.2019 08:00:00 (GMT)Aberdeen/Dyce, United Kingdom (3091): sunshine duration: 05.12.2019 08:00:00 - 11.12.2019 08:00:00 (GMT)Aberdeen/Dyce, United Kingdom (3091): precipitation: 05.12.2019 08:00:00 - 11.12.2019 08:00:00 (GMT)
Date & Time tt [°C] td [°C] tt -20cm [°C] tt -100cm [°C] ff [km/h] ff [kn] fx [km/h] fx [kn] dd ppp [hPa] vv [km] sd [min] rr [mm]
11.12.2019 08:00:00 4,1 0,7 - - 31 17 52 28 SSW 988,6 10 0 0,0
11.12.2019 07:00:00 4,4 0,8 - - 37 20 57 31 SW 989,4 45 0 0,0
11.12.2019 06:00:00 4,1 0,7 - - 31 17 65 35 SSW 989,9 10 0 0,0
11.12.2019 05:00:00 3,8 -0,4 - - 22 12 - - SSW 989,6 10 0 0,0
11.12.2019 04:00:00 4,2 -1,4 - - 16 9 - - SW 990,2 10 0 0,0
11.12.2019 03:00:00 4,7 -1,1 - - 18 10 - - SW 990,0 45 0 0,0
11.12.2019 02:00:00 5,0 -0,1 - - 21 11 - - WSW 989,4 10 0 0,0
11.12.2019 01:00:00 4,8 0,1 - - 21 11 - - SW 988,5 50 0 0,0
11.12.2019 00:00:00 5,3 0,0 - - 24 13 - - SW 987,4 10 - 0,0
10.12.2019 23:00:00 4,6 0,6 - - 18 10 - - SW 986,6 45 0 0,0
10.12.2019 22:00:00 4,6 0,3 - - 13 7 - - SW 985,7 10 0 0,0
10.12.2019 21:00:00 5,3 0,3 - - 16 9 - - SW 985,3 10 0 0,0
10.12.2019 20:00:00 6,0 0,8 - - 26 14 - - SW 983,6 10 0 0,0
10.12.2019 19:00:00 6,9 2,5 - - 22 12 - - SW 983,1 10 0 0,0
10.12.2019 18:00:00 7,5 4,0 - - 13 7 - - WSW 981,7 10 0 0,2
10.12.2019 17:00:00 7,9 4,6 - - 24 13 57 31 WNW 980,2 10 0 1,6
10.12.2019 16:00:00 10,0 9,1 - - 29 16 67 36 S 978,1 6 0 0,0
10.12.2019 15:00:00 9,6 8,6 - - 48 26 74 40 S 978,0 4,1 0 0,2
10.12.2019 14:00:00 9,1 8,0 - - 48 26 68 37 S 979,8 4,6 0 0,2
10.12.2019 13:00:00 8,5 7,5 - - 34 18 48 26 S 983,1 10 0 0,0
10.12.2019 12:00:00 7,8 7,0 - - 37 20 65 35 SSE 986,5 8 0 0,2
10.12.2019 11:00:00 7,3 6,0 - - 52 28 76 41 S 988,6 9 0 0,0
10.12.2019 10:00:00 7,3 5,6 - - 55 30 78 42 S 990,5 9 0 0,0
10.12.2019 09:00:00 6,5 5,2 5,7 7,7 55 30 85 46 S 992,7 6 0 0,0
10.12.2019 08:00:00 6,8 5,3 - - 41 22 76 41 S 996,4 7 0 0,0
10.12.2019 07:00:00 7,3 5,0 - - 44 24 67 36 S 998,1 10 0 0,0
10.12.2019 06:00:00 6,5 4,2 - - 44 24 61 33 S 1000,1 10 0 0,2
10.12.2019 05:00:00 5,3 3,2 - - 31 17 50 27 S 1003,3 7 0 0,0
10.12.2019 04:00:00 4,9 2,6 - - 34 18 72 39 S 1005,8 10 0 0,0
10.12.2019 03:00:00 4,4 1,9 - - 24 13 54 29 S 1007,7 10 0 0,0
10.12.2019 02:00:00 4,0 1,6 - - 35 19 48 26 S 1009,2 10 0 0,0
10.12.2019 01:00:00 3,9 1,2 - - 22 12 - - S 1010,9 18 0 0,0
10.12.2019 00:00:00 3,1 -0,4 - - 22 12 - - S 1012,5 10 - 0,0
09.12.2019 23:00:00 3,2 -0,7 - - 18 10 - - S 1013,4 30 0 0,0
09.12.2019 22:00:00 1,6 -1,2 - - 13 7 - - SSE 1014,8 30 0 0,0
09.12.2019 21:00:00 2,8 -2,1 - - 8 4 - - SW 1015,9 10 0 0,0
09.12.2019 20:00:00 1,7 -1,6 - - 11 6 - - SW 1016,2 10 0 0,0
09.12.2019 19:00:00 1,7 -1,5 - - 9 5 - - WSW 1016,5 10 0 0,0
09.12.2019 18:00:00 1,9 -1,5 - - 13 7 - - SW 1015,8 10 0 0,0
09.12.2019 17:00:00 2,7 -1,2 - - 15 8 - - W 1015,5 10 0 0,0
09.12.2019 16:00:00 2,7 -0,8 - - 11 6 - - WSW 1014,4 10 0 0,0
09.12.2019 15:00:00 4,2 0,0 - - 21 11 - - NW 1013,3 19 24 0,0
09.12.2019 14:00:00 4,3 0,9 - - 21 11 46 25 NW 1012,3 18 30 0,2
09.12.2019 13:00:00 4,2 0,8 - - 24 13 - - WNW 1011,6 21 60 0,0
09.12.2019 12:00:00 3,9 0,7 - - 24 13 46 25 WNW 1010,3 10 60 0,0
09.12.2019 11:00:00 3,9 0,1 - - 26 14 54 29 NW 1009,0 29 36 0,0
09.12.2019 10:00:00 3,9 -0,1 - - 21 11 55 30 NW 1007,4 21 0 0,0
09.12.2019 09:00:00 4,0 0,3 6,0 7,7 26 14 50 27 NW 1005,5 10 0 0,0
09.12.2019 08:00:00 4,0 0,3 - - 31 17 50 27 NW 1002,9 10 0 0,0
09.12.2019 07:00:00 4,4 0,7 - - 41 22 63 34 NNW 1000,7 10 0 0,8
09.12.2019 06:00:00 4,2 0,7 - - 35 19 74 40 NNW 998,0 18 0 0,2
09.12.2019 05:00:00 5,0 0,6 - - 37 20 57 31 NNW 995,0 10 0 0,0
09.12.2019 04:00:00 5,7 2,7 - - 37 20 70 38 NNW 991,9 10 0 0,4
09.12.2019 03:00:00 5,4 3,5 - - 35 19 80 43 NNW 989,1 10 0 0,2
09.12.2019 02:00:00 5,1 3,8 - - 50 27 87 47 N 985,0 9 0 1,6
09.12.2019 01:00:00 5,0 3,4 - - 55 30 74 40 NW 981,4 4,9 0 1,8
09.12.2019 00:00:00 4,9 2,5 - - 35 19 61 33 WNW 980,0 10 - 0,0
08.12.2019 23:00:00 5,5 1,7 - - 29 16 - - WNW 978,1 50 0 0,0
08.12.2019 22:00:00 4,6 1,1 - - 15 8 - - WSW 977,3 10 0 0,0
08.12.2019 21:00:00 3,7 0,8 - - 11 6 - - WSW 976,5 10 0 0,0
08.12.2019 20:00:00 4,1 0,8 - - 13 7 - - WSW 975,5 10 0 0,0
08.12.2019 19:00:00 4,7 1,6 - - 21 11 - - SW 974,3 10 0 0,0
08.12.2019 18:00:00 4,8 1,4 - - 24 13 - - SW 973,8 10 0 0,0
08.12.2019 17:00:00 5,0 1,6 - - 24 13 - - SW 974,2 10 0 0,0
08.12.2019 16:00:00 4,8 1,4 - - 28 15 54 29 WSW 974,1 50 0 0,0
08.12.2019 15:00:00 4,9 1,3 - - 29 16 55 30 SW 974,6 10 24 0,0
08.12.2019 14:00:00 5,8 1,3 - - 34 18 52 28 SW 974,9 50 60 0,0
08.12.2019 13:00:00 6,0 1,2 - - 31 17 54 29 SW 975,6 10 60 0,0
08.12.2019 12:00:00 6,2 1,4 - - 29 16 54 29 SW 976,0 10 60 0,0
08.12.2019 11:00:00 6,8 0,9 - - 24 13 - - SW 976,7 50 60 0,0
08.12.2019 10:00:00 5,7 0,9 - - 22 12 - - SSW 977,4 10 24 0,0
08.12.2019 09:00:00 5,6 0,6 6,4 7,7 22 12 46 25 SW 977,7 10 0 0,0
08.12.2019 08:00:00 5,6 1,1 - - 16 9 - - SW 977,8 10 0 0,0
08.12.2019 07:00:00 6,5 0,9 - - 21 11 48 26 WSW 978,3 10 0 0,0
08.12.2019 06:00:00 6,5 1,3 - - 22 12 52 28 WSW 977,9 45 0 0,0
08.12.2019 05:00:00 6,8 1,8 - - 35 19 55 30 W 977,7 10 0 0,0
08.12.2019 04:00:00 9,1 1,6 - - 37 20 61 33 W 976,6 50 0 0,0
08.12.2019 03:00:00 10,0 3,9 - - 29 16 59 32 WSW 976,4 50 0 0,0
08.12.2019 02:00:00 11,1 8,1 - - 22 12 54 29 SW 975,9 10 0 0,0
08.12.2019 01:00:00 11,2 8,2 - - 37 20 57 31 SSW 976,6 50 0 0,0
08.12.2019 00:00:00 10,8 8,5 - - 34 18 61 33 SSW 978,3 10 - 0,0
07.12.2019 23:00:00 9,9 8,6 - - 29 16 48 26 S 980,8 10 0 0,0
07.12.2019 22:00:00 10,3 8,4 - - 37 20 52 28 S 982,8 10 0 0,0
07.12.2019 21:00:00 10,5 8,2 - - 35 19 57 31 SSW 985,0 10 0 0,0
07.12.2019 20:00:00 10,5 8,0 - - 34 18 50 27 SSW 987,2 10 0 0,0
07.12.2019 19:00:00 9,6 7,9 - - 24 13 48 26 SSW 989,8 50 0 0,0
07.12.2019 18:00:00 8,3 7,1 - - 24 13 - - SSW 991,5 10 0 0,2
07.12.2019 17:00:00 7,9 7,1 - - 24 13 - - S 993,8 35 0 0,6
07.12.2019 16:00:00 7,6 6,8 - - 22 12 - - S 995,7 8 0 1,8
07.12.2019 15:00:00 7,4 6,3 - - 21 11 - - SSW 997,4 6 0 1,2
07.12.2019 14:00:00 6,8 5,3 - - 15 8 - - S 998,4 50 0 0,0
07.12.2019 13:00:00 6,1 4,7 - - 9 5 - - SSE 1000,1 50 0 0,0
07.12.2019 12:00:00 6,2 4,0 - - 5 3 - - - 1001,5 10 0 0,0
07.12.2019 11:00:00 5,0 3,7 - - 2 1 - - - 1002,7 10 0 0,0
07.12.2019 10:00:00 4,4 3,0 - - 2 1 - - WSW 1003,0 50 0 0,0
07.12.2019 09:00:00 4,6 2,3 6,2 7,7 4 2 - - - 1003,3 10 0 0,0
07.12.2019 08:00:00 5,0 2,9 - - 9 5 - - WSW 1003,0 10 0 0,0
07.12.2019 07:00:00 4,3 2,4 - - 8 4 - - WSW 1002,9 10 0 0,0
07.12.2019 06:00:00 5,3 3,3 - - 4 2 - - - 1002,7 10 0 0,0
07.12.2019 05:00:00 5,4 3,2 - - 8 4 - - SW 1002,2 50 0 0,0
07.12.2019 04:00:00 5,4 3,2 - - 9 5 - - SW 1001,8 50 0 0,0
07.12.2019 03:00:00 5,3 3,0 - - 9 5 - - SW 1001,3 50 0 0,0
07.12.2019 02:00:00 6,1 3,1 - - 13 7 - - W 1000,8 10 0 0,0
07.12.2019 01:00:00 5,4 3,1 - - 11 6 - - W 1000,2 10 0 0,0
07.12.2019 00:00:00 5,2 3,0 - - 5 3 61 33 - 999,7 10 - 0,0
06.12.2019 23:00:00 5,8 3,9 - - 15 8 - - WNW 998,9 50 0 0,0
06.12.2019 22:00:00 6,6 5,6 - - 22 12 - - NW 997,9 9 0 0,2
06.12.2019 21:00:00 7,3 6,3 - - 26 14 - - NW 997,2 6 0 0,2
06.12.2019 20:00:00 8,2 6,5 - - 18 10 - - WNW 995,4 4,2 0 0,0
06.12.2019 19:00:00 8,5 4,8 - - 15 8 - - W 994,1 10 0 0,0
06.12.2019 18:00:00 8,8 4,7 - - 13 7 - - W 992,9 10 0 0,0
06.12.2019 17:00:00 8,7 5,0 - - 18 10 - - WNW 991,8 10 0 0,0
06.12.2019 16:00:00 8,4 4,9 - - 15 8 - - WNW 990,7 10 0 0,0
06.12.2019 15:00:00 9,0 5,0 - - 11 6 - - WNW 990,1 10 24 0,0
06.12.2019 14:00:00 9,1 5,7 - - 22 12 - - WNW 989,5 10 0 0,0
06.12.2019 13:00:00 9,4 7,0 - - 15 8 - - W 989,3 10 0 0,0
06.12.2019 12:00:00 10,1 7,5 - - 18 10 - - W 989,3 10 0 0,0
06.12.2019 11:00:00 10,4 9,1 - - 4 2 - - - 989,0 10 0 0,0
06.12.2019 10:00:00 9,9 8,5 - - 9 5 - - SW 989,1 10 0 0,6
06.12.2019 09:00:00 10,0 8,3 6,0 7,7 15 8 - - SW 989,0 6 0 0,2
06.12.2019 08:00:00 10,2 7,9 - - 15 8 - - SSW 989,1 10 0 0,0
06.12.2019 07:00:00 10,8 7,7 - - 18 10 - - SSW 989,1 10 0 0,0
06.12.2019 06:00:00 10,4 7,5 - - 18 10 - - SW 989,5 50 0 0,0
06.12.2019 05:00:00 10,3 7,4 - - 15 8 - - SSW 989,9 10 0 0,0
06.12.2019 04:00:00 10,3 7,0 - - 15 8 - - WSW 990,4 10 0 0,0
06.12.2019 03:00:00 9,8 6,9 - - 11 6 - - SW 990,6 50 0 0,0
06.12.2019 02:00:00 6,9 5,5 - - 4 2 - - SE 990,9 50 0 0,0
06.12.2019 01:00:00 8,0 7,2 - - 8 4 - - S 991,3 10 0 0,0
06.12.2019 00:00:00 8,4 7,6 - - 4 2 - - - 991,1 10 - 0,0
05.12.2019 23:00:00 9,4 8,2 - - 13 7 - - WNW 990,7 10 0 0,2
05.12.2019 22:00:00 10,8 9,1 - - 26 14 61 33 WNW 989,8 7 0 0,2
05.12.2019 21:00:00 12,4 8,4 - - 18 10 - - W 988,0 10 0 0,0
05.12.2019 20:00:00 10,8 8,3 - - 18 10 - - SSW 987,2 10 0 0,0
05.12.2019 19:00:00 10,1 7,9 - - 22 12 - - SW 987,3 50 0 0,0
05.12.2019 18:00:00 9,7 7,3 - - 24 13 - - SSW 987,6 10 0 0,0
05.12.2019 17:00:00 8,4 6,2 - - 22 12 52 28 SSW 989,4 10 0 0,0
05.12.2019 16:00:00 8,3 5,8 - - 31 17 54 29 SSW 990,8 10 0 0,0
05.12.2019 15:00:00 8,1 5,4 - - 26 14 50 27 SSW 992,6 10 0 0,0
05.12.2019 14:00:00 7,3 5,1 - - 28 15 - - S 995,5 50 0 0,0
05.12.2019 13:00:00 7,0 4,8 - - 26 14 - - S 997,9 10 0 0,0
05.12.2019 12:00:00 7,7 4,3 - - 35 19 - - SSW 999,0 45 0 0,0
05.12.2019 11:00:00 7,5 4,9 - - 26 14 - - S 1000,7 10 0 0,0
05.12.2019 10:00:00 7,1 4,4 - - 26 14 - - SSW 1001,3 10 0 0,0
05.12.2019 09:00:00 6,7 3,8 5,9 7,7 26 14 - - SSW 1001,7 10 0 0,0
05.12.2019 08:00:00 6,2 3,4 - - 26 14 - - S 1002,7 10 0 0,0

tt = temperature
td = dewpoint
tt -20cm = temperature -20cm
tt -100cm = temperature -100cm
ff = wind speed
fx = gusts
dd = wind direction
ppp = reduced air pressure
vv = visibility
sd = sunshine duration
rr = precipitation

Next stations